FENGYUN 1C DEB

Satellite information

Favourite Embed

Satellite Type and Status

DEBRISIN ORBIT

Key statistics

Satellite FENGYUN 1C DEB at a glance.

Uptime

9714

Days in orbit

Revolutions

≈ 14.3

Per day

Orbit

SSO

Sun Synchronous Orbit

Inclination

98.7

Latest

Satellite identification and parameters

Extended collection of information and parameters for FENGYUN 1C DEB.

Object identification

Identified? True

Debris? True

Object name: FENGYUN 1C DEB

International designator: 1999-025AMP

Object number (NORAD): 30608

Object ID (CCSDS): 30608

Country: PEOPLES REPUBLIC OF CHINA (PRC)

Current information (Y/N): Y

RCS size: MEDIUM

Orbital parameters

Period: 100.807 minutes

Inclination: 98.7103 deg

SMA: 7174.982 km

Apoapsis: 808.336 km

Periapsis: 785.359 km

RAAN: 48.834 deg

Eccentricy: 0.00160116

Argument of periapsis: 180.6301 deg

Mean anomaly: 234.0467 deg

Mean motion: 14.28471231 rev/day

Mean motion (dot): 0.00004465 rev/day2

B* drag term: 0.001797787 1/REarth

Two-line elements (TLE)

Creation date: Dec. 12, 2025, 10:14 a.m.

Reference frame: TEME

Reference center: EARTH

Epoch: Dec. 12, 2025, 4:04 a.m. UTC

TLE line 0: 0 FENGYUN 1C DEB

TLE line 1: 1 30608U 99025AMP 25346.16946728 .00004465 00000-0 17978-2 0 9998

TLE line 2: 2 30608 98.7103 48.8340 0016012 180.6301 234.0467 14.28471231974316

Live tracking on map

Real-time ground track for satellite FENGYUN 1C DEB.

In-orbit conjunctions

A list of the most updated potential collisions computed for object FENGYUN 1C DEB.

Target Orbit TCA Probability of collision Miss distance Type
METEOR 2-8 DEB LEO 2025-08-26 17:14:44 0.0002445025 127.0 (m) DEBRIS
CZ-6A DEB LEO 2025-08-13 17:38:10 0.0003490216 421.0 (m) DEBRIS
CZ-6A DEB LEO 2025-08-03 01:54:55 0.0001102108 887.0 (m) DEBRIS
FENGYUN 1C DEB SSO 2025-04-27 10:03:51 0.0002498561 155.0 (m) DEBRIS
SL-18 DEB LEO 2024-11-28 06:17:01 0.0003146363 81.0 (m) DEBRIS

Associated space launch

Chinese polar orbiting meteorological satellite

FENGYUN 1C DEB was lifted into orbit during the mission ‘Long March 4B | Feng Yun 1C’, on board a Long March 4B space rocket.

The launch took place on May 10, 1999, 1:33 a.m. from Launch Complex 7.

For more information about the launch, click the button.

Launch to space Long March 4B | Feng Yun 1C
Long March 4B | Feng Yun 1C

Agency: N/A

Status: Launch Successful

Launch date: May 10, 1999, 1:33 a.m. UTC

Rocket: Long March 4B

Launch pad: Launch Complex 7

Location: Taiyuan Satellite Launch Center, People's Republic of China

...

Latest news about this satellite

There are no fresh news available about this satellite. Check back as we update our databases every day.


Newsletter sign-up

Weekly statistics, charts and insights to help you stay on top of the space industry.